Walla Walla, WA

4:19 AM PDT on July 28, 2017 (GMT -0700)
Walla Walla Regional

Weather History for KALW - August, 2014

Change the Weather History Date:

Friday, August 15, 2014

  Actual Average Record
Temperature  
Mean Temperature 72 °F 75 °F  
Max Temperature 82 °F 89 °F 105 °F (1967)
Min Temperature 62 °F 61 °F 51 °F (1960)
Degree Days  
Heating Degree Days 0 0  
Month to date heating degree days 0  
Since 1 June heating degree days 68  
Since 1 July heating degree days 6  
Cooling Degree Days 7 10  
Month to date cooling degree days 168  
Year to date cooling degree days 627  
Since 1 June cooling degree days 592  
Growing Degree Days 22 (Base 50)    
Moisture  
Dew Point 54 °F    
Average Humidity 55    
Maximum Humidity 84    
Minimum Humidity 34    
Precipitation  
Precipitation 0.00 in 0.02 in 1.16 in (1978)
Month to date precipitation 0.26  
Year to date precipitation 12.77  
Snow  
Snow 0.00 in 0.00 in 0.00 in (2002)
Month to date snowfall 0.0  
Year to date snowfall 6.0  
Since 1 July snowfall 0.0  
Snow Depth -    
Sea Level Pressure  
Sea Level Pressure 29.98 in    
Wind  
Wind Speed 5 mph (SSE)    
Max Wind Speed 8 mph    
Max Gust Speed -    
Visibility 10 miles    
Events      
T = Trace of Precipitation, MM = Missing Value Source: NWS Daily Summary

Daily Weather History Graph

Daily Weather History Graph

Search for Another Location

Airport or City:

Trip Planner

Search our weather history database for the weather conditions in past years. The results will help you decide how hot, cold, wet, or windy it might be!

Date:

Astronomy

Aug. 15, 2014 Rise Set
Actual Time 5:52 AM PDT 8:01 PM PDT
Civil Twilight 5:19 AM PDT 8:34 PM PDT
Nautical Twilight 4:39 AM PDT 9:14 PM PDT
Astronomical Twilight 3:54 AM PDT 9:59 PM PDT
Moon 10:44 PM PDT (8/15) 12:02 PM PDT (8/15)
Length of Visible Light 15h 14m
Length of Day
14h 09m
Waning Gibbous, 68% of the Moon is Illuminated
Aug 15
Waning Gibbous
Aug 17
Last Quarter
Aug 25
New
Sep 2
First Quarter
Sep 8
Full

Hourly Weather History & Observations

Time (PDT) Temp. Heat Index Dew Point Humidity Pressure Visibility Wind Dir Wind Speed Gust Speed Precip Events Conditions
12:53 AM 64.9 °F - 57.0 °F 75% 29.97 in 10.0 mi SE 8.1 mph - N/A   Partly Cloudy
1:53 AM 63.0 °F - 57.0 °F 81% 29.97 in 10.0 mi ESE 4.6 mph - N/A   Clear
2:53 AM 63.0 °F - 57.0 °F 81% 29.96 in 10.0 mi ESE 4.6 mph - N/A   Clear
3:53 AM 62.1 °F - 55.9 °F 80% 29.97 in 10.0 mi SE 3.5 mph - N/A   Partly Cloudy
4:53 AM 63.0 °F - 57.0 °F 81% 29.97 in 10.0 mi ESE 3.5 mph - N/A   Overcast
5:53 AM 62.1 °F - 57.0 °F 84% 29.99 in 10.0 mi Calm Calm - N/A   Mostly Cloudy
7:53 AM 68.0 °F - 57.0 °F 68% 30.00 in 10.0 mi NNE 3.5 mph - N/A   Overcast
8:53 AM 70.0 °F - 55.9 °F 61% 30.01 in 10.0 mi Calm Calm - N/A   Clear
9:53 AM 71.1 °F - 55.0 °F 57% 30.02 in 10.0 mi Calm Calm - N/A   Clear
10:53 AM 75.0 °F - 55.0 °F 50% 30.02 in 10.0 mi Variable 4.6 mph - N/A   Clear
11:53 AM 77.0 °F - 53.1 °F 43% 30.01 in 10.0 mi West 5.8 mph - N/A   Clear
12:53 PM 78.1 °F - 53.1 °F 42% 30.00 in 10.0 mi SSW 6.9 mph - N/A   Clear
1:53 PM 79.0 °F - 54.0 °F 42% 29.99 in 10.0 mi Variable 6.9 mph - N/A   Mostly Cloudy
2:53 PM 80.1 °F 79.9 °F 53.1 °F 39% 29.99 in 10.0 mi SW 5.8 mph - N/A   Partly Cloudy
3:53 PM 81.0 °F 80.4 °F 53.1 °F 38% 29.97 in 10.0 mi Calm Calm - N/A   Clear
4:53 PM 82.0 °F - 52.0 °F 35% 29.97 in 10.0 mi North - - N/A   Partly Cloudy
5:53 PM 82.0 °F - 51.1 °F 34% 29.96 in 10.0 mi SW 6.9 mph - N/A   Scattered Clouds
6:53 PM 81.0 °F - 50.0 °F 34% 29.96 in 10.0 mi WSW 5.8 mph - N/A   Mostly Cloudy
7:53 PM 78.1 °F - 50.0 °F 37% 29.96 in 10.0 mi West 4.6 mph - N/A   Clear
8:53 PM 73.0 °F - 50.0 °F 44% 29.98 in 10.0 mi Calm Calm - N/A   Clear
10:53 PM 70.0 °F - 54.0 °F 57% 29.98 in 10.0 mi East 6.9 mph - N/A   Clear
11:53 PM 69.1 °F - 53.1 °F 57% 29.98 in 10.0 mi ESE 8.1 mph - N/A   Partly Cloudy